[[{"header":{"parameterUnit":"m.s-1","parameterCategory":1,"la1":30.2991,"la2":30.254,"lo1":-89.0895,"lo2":-89.0444,"dy":0.0017,"dx":0.0017,"nx":28,"ny":28,"refTime":"2024-12-01T03:00:00:Z","depth":0,"parameterNumber":2,"parameterNumberName":"U-component_of_WINDS"},"data":[0,0,0,0,0,0,0,0,0,0,0,0,0,0,0,0,0,0,0,0,0,0,0,0,0,0,0,0,0,0,0,0,0,0,0,0,0,0,0,0,0,0,0,0,0,0,0,0,0,0,0,0,0,0,0,0,0,0,-3.214,-3.214,0,-3.2168,-3.2168,-3.2169,-3.2071,-3.2068,-3.2065,-3.2062,-3.209,-3.2094,-3.2097,0,0,0,0,0,0,0,0,0,0,0,0,0,-3.2001,-3.2004,-3.214,-3.214,-3.2141,-3.2168,-3.2168,-3.2169,-3.2072,-3.2068,-3.2064,-3.2061,-3.2089,-3.2093,-3.2097,0,0,0,0,0,0,0,0,0,0,0,0,0,-3.2049,-3.2005,-3.214,-3.2096,-3.2092,-3.2168,-3.2168,-3.2169,-3.2072,-3.2068,-3.2063,-3.2059,-3.2088,-3.2093,-3.2098,-3.2218,0,0,-3.2114,-3.2116,0,0,0,0,0,0,0,0,-3.2046,-3.2054,-3.2102,-3.2099,-3.2095,-3.2111,-3.2129,-3.2185,-3.2073,-3.208,-3.2062,-3.2057,-3.2101,-3.2105,-3.2119,-3.2219,-3.222,-3.2114,-3.2117,-3.212,-3.2121,0,0,0,0,0,0,0,-3.2043,-3.2052,-3.2151,-3.2103,-3.2098,-3.2074,-3.2076,-3.214,-3.2114,-3.2079,-3.2072,-3.2076,-3.2098,-3.2115,-3.2119,-3.2221,-3.2114,-3.2119,-3.2122,-3.2124,-3.242,-3.2424,0,0,0,0,0,0,-3.2046,-3.205,-3.215,-3.2152,-3.2059,-3.208,-3.2082,-3.2111,-3.2113,-3.211,-3.208,-3.2072,-3.2108,-3.2113,-3.212,-3.2261,-3.212,-3.2124,-3.2127,-3.2415,-3.2421,-3.2426,0,0,0,0,0,0,-3.2043,-3.2055,-3.2149,-3.2099,-3.2109,-3.2087,-3.212,-3.2113,-3.213,-3.2115,-3.2109,-3.2102,-3.2105,-3.2113,-3.2194,-3.226,-3.2127,-3.2132,-3.2409,-3.2417,-3.2423,-3.2543,0,0,0,0,0,0,-3.2039,-3.2055,-3.2101,-3.2101,-3.2112,-3.2224,-3.2124,-3.2117,-3.2139,-3.2129,-3.2134,-3.213,-3.2102,-3.2187,-3.2199,-3.2265,-3.2136,-3.2403,-3.2413,-3.2421,-3.2533,-3.2553,-3.2571,0,0,0,0,0,-3.2035,-3.2133,-3.2104,-3.2116,-3.2169,-3.2227,-3.2234,-3.2199,-3.2145,-3.2191,-3.2181,-3.213,-3.2251,-3.2196,-3.2209,-3.2277,-3.2399,-3.241,-3.242,-3.2524,-3.2549,-3.257,0,0,0,0,0,0,-3.2141,-3.2132,-3.2099,-3.2201,-3.2216,-3.2211,-3.2267,-3.2227,-3.2257,-3.2246,-3.2201,-3.2203,-3.2293,-3.2293,-3.2232,-3.2393,-3.2315,-3.2329,-3.239,-3.2414,-3.2432,-3.243,-3.214,0,0,0,0,0,-3.2177,-3.2225,-3.2215,-3.2305,-3.2314,-3.229,-3.2314,-3.2286,-3.23,-3.2305,-3.2301,-3.2316,-3.2357,-3.2385,-3.2422,-3.2532,-3.2532,-3.2585,-3.2604,-3.262,-3.2632,-3.269,-3.2714,-3.2461,-3.2461,-3.246,0,0,-3.225,-3.2251,-3.2285,-3.2327,-3.2335,-3.2386,-3.2296,-3.2354,-3.2391,-3.2314,-3.2391,-3.2389,-3.2402,-3.2498,-3.2541,-3.2501,-3.2702,-3.2633,-3.2646,-3.265,-3.2704,-3.2728,-3.2749,-3.2468,-3.2467,-3.2466,0,0,-3.241,-3.2416,-3.2492,-3.2502,-3.2516,-3.2499,-3.2517,-3.2518,-3.2514,-3.259,-3.2534,-3.2577,-3.2649,-3.2661,-3.2676,-3.2841,-3.2796,-3.2854,-3.2952,-3.301,-3.303,-3.3047,-3.3106,-3.3128,-3.2867,-3.2867,-3.2867,0,-3.2499,-3.2575,-3.2536,-3.2598,-3.2618,-3.2551,-3.2627,-3.2639,-3.2664,-3.2679,-3.2635,-3.2723,-3.2728,-3.2826,-3.2866,-3.2881,-3.29,-3.2854,-3.303,-3.3047,-3.3063,-3.3118,-3.3141,-3.2874,-3.2873,-3.2872,-3.2872,0,-3.2684,-3.2737,-3.2797,-3.2823,-3.285,-3.2919,-3.289,-3.2922,-3.2892,-3.2879,-3.2958,-3.2961,-3.2997,-3.3018,-3.2989,-3.3112,-3.3088,-3.3037,-3.2958,-3.3095,-3.3146,-3.3167,-3.2884,-3.2881,-3.2879,-3.2878,0,0,-3.2912,-3.2916,-3.2939,-3.295,-3.296,-3.3,-3.3066,-3.3102,-3.313,-3.3149,-3.3203,-3.3265,-3.3219,-3.3236,-3.3208,-3.3258,-3.3389,-3.3202,-3.3201,-3.3236,-3.3525,-3.3563,-3.3588,-3.3358,-3.3362,-3.3365,-3.3523,0,-3.307,-3.3183,-3.315,-3.3263,-3.3312,-3.3248,-3.3305,-3.3318,-3.3308,-3.3347,-3.3335,-3.3381,-3.3316,-3.3326,-3.3373,-3.3363,-3.3446,-3.3351,-3.3408,-3.341,-3.3407,-3.3615,-3.3655,-3.3805,-3.3543,-3.3547,-3.3549,0,-3.3269,-3.3297,-3.3415,-3.3417,-3.3436,-3.3488,-3.3518,-3.3557,-3.3569,-3.3558,-3.3578,-3.3539,-3.3603,-3.3524,-3.3611,-3.3548,-3.3569,-3.3567,-3.3572,-3.3577,-3.3489,-3.3625,-3.3851,-3.3874,-3.358,-3.3578,-3.3576,0,-3.3424,-3.3491,-3.357,-3.3582,-3.3586,-3.3624,-3.3627,-3.3635,-3.3659,-3.3685,-3.37,-3.3733,-3.3751,-3.3778,-3.3749,-3.3694,-3.3841,-3.3759,-3.3834,-3.3835,-3.3868,-3.3866,-3.4101,-3.3881,-3.3881,-3.3881,-3.388,0,-3.3604,-3.3679,-3.364,-3.3689,-3.3771,-3.3732,-3.3814,-3.381,-3.3818,-3.3865,-3.3811,-3.3856,-3.3815,-3.3856,-3.3834,-3.391,-3.3918,-3.3911,-3.3905,-3.3916,-3.3917,-3.393,-3.3919,-3.3886,-3.3885,-3.3884,-3.3883,0,-3.3791,-3.3768,-3.3851,-3.3848,-3.3849,-3.391,-3.3907,-3.3952,-3.3938,-3.3998,-3.4009,-3.3988,-3.4033,-3.4007,-3.4053,-3.4038,-3.4137,-3.4116,-3.4133,-3.4128,-3.4204,-3.4197,-3.4455,-3.4487,-3.4247,-3.4249,-3.4251,0,-3.3907,-3.3964,-3.3967,-3.3995,-3.4002,-3.4047,-3.4071,-3.4035,-3.4062,-3.408,-3.4123,-3.4164,-3.4194,-3.427,-3.4258,-3.4294,-3.4273,-3.4361,-3.4278,-3.4288,-3.4274,-3.4272,-3.4277,-3.4378,-3.4381,-3.4383,-3.4385,0,-3.4117,-3.4102,-3.4139,-3.4172,-3.4203,-3.4227,-3.4246,-3.4272,-3.4235,-3.4268,-3.4315,-3.4339,-3.4386,-3.4428,-3.4458,-3.446,-3.4417,-3.4411,-3.443,-3.4443,-3.4451,-3.4448,-3.4179,-3.4405,-3.4403,-3.4402,-3.4401,-3.44,-3.4272,-3.4319,-3.4329,-3.4372,-3.4383,-3.4402,-3.4444,-3.4436,-3.4474,-3.451,-3.4486,-3.454,-3.455,-3.4586,-3.4595,-3.4636,-3.4601,-3.4629,-3.4636,-3.4643,-3.4654,-3.4444,-3.4642,-3.4641,-3.464,-3.464,-3.4639,0,-3.4478,-3.4482,-3.4521,-3.4551,-3.4584,-3.4541,-3.456,-3.4591,-3.464,-3.4653,-3.4685,-3.4738,-3.4777,-3.4769,-3.4804,-3.484,-3.4821,-3.485,-3.4847,-3.4849,-3.4683,-3.4663,-3.4865,-3.4865,-3.4865,-3.4865,-3.4865,-3.4865,-3.459,-3.4667,-3.4654,-3.4737,-3.4739,-3.4792,-3.4807,-3.4825,-3.4835,-3.4897,-3.493,-3.4924,-3.4928,-3.4964,-3.4998,-3.4994,-3.501,-3.5047,-3.5037,-3.4883,-3.486,-3.4839,-3.482,-3.5051,-3.5051,-3.5198,-3.5199,-3.5201]},{"header":{"parameterUnit":"m.s-1","parameterCategory":1,"la1":30.2991,"la2":30.254,"lo1":-89.0895,"lo2":-89.0444,"dy":0.0017,"dx":0.0017,"nx":28,"ny":28,"refTime":"2024-12-01T03:00:00:Z","depth":0,"parameterNumber":3,"parameterNumberName":"V-component_of_WINDS"},"data":[0,0,0,0,0,0,0,0,0,0,0,0,0,0,0,0,0,0,0,0,0,0,0,0,0,0,0,0,0,0,0,0,0,0,0,0,0,0,0,0,0,0,0,0,0,0,0,0,0,0,0,0,0,0,0,0,0,0,-2.3744,-2.3744,0,-2.3766,-2.3766,-2.3767,-2.3737,-2.3736,-2.3735,-2.3734,-2.3756,-2.3758,-2.3759,0,0,0,0,0,0,0,0,0,0,0,0,0,-2.3673,-2.3675,-2.3744,-2.3744,-2.3744,-2.3766,-2.3766,-2.3767,-2.3737,-2.3736,-2.3735,-2.3733,-2.3756,-2.3758,-2.376,0,0,0,0,0,0,0,0,0,0,0,0,0,-2.3701,-2.3675,-2.3744,-2.3732,-2.3731,-2.3766,-2.3766,-2.3767,-2.3737,-2.3736,-2.3734,-2.3733,-2.3755,-2.3758,-2.376,-2.3807,0,0,-2.3767,-2.3768,0,0,0,0,0,0,0,0,-2.3699,-2.3703,-2.3733,-2.3733,-2.3732,-2.3747,-2.375,-2.378,-2.3738,-2.3735,-2.3734,-2.3732,-2.3755,-2.3757,-2.3765,-2.3808,-2.3809,-2.3767,-2.3769,-2.377,-2.3771,0,0,0,0,0,0,0,-2.3697,-2.3702,-2.3752,-2.3734,-2.3733,-2.3725,-2.3727,-2.3755,-2.3754,-2.3735,-2.3733,-2.3736,-2.3754,-2.3762,-2.3765,-2.3809,-2.3767,-2.3769,-2.3771,-2.3772,-2.389,-2.3892,0,0,0,0,0,0,-2.3697,-2.3701,-2.3752,-2.3753,-2.3711,-2.3728,-2.373,-2.3744,-2.3753,-2.3753,-2.3738,-2.3735,-2.3759,-2.3762,-2.3766,-2.382,-2.377,-2.3772,-2.3774,-2.3889,-2.3891,-2.3892,0,0,0,0,0,0,-2.3696,-2.3702,-2.3751,-2.3726,-2.3732,-2.3731,-2.3746,-2.3745,-2.3754,-2.3755,-2.3754,-2.3747,-2.3758,-2.3762,-2.3796,-2.382,-2.3773,-2.3775,-2.3887,-2.3889,-2.3892,-2.393,0,0,0,0,0,0,-2.3694,-2.3701,-2.372,-2.3727,-2.3733,-2.3782,-2.3748,-2.3747,-2.3758,-2.3755,-2.3763,-2.3763,-2.3757,-2.3793,-2.3799,-2.3823,-2.3777,-2.3884,-2.3888,-2.3891,-2.3927,-2.3934,-2.394,0,0,0,0,0,-2.3691,-2.373,-2.3721,-2.3727,-2.3756,-2.3784,-2.3787,-2.3779,-2.376,-2.3778,-2.3779,-2.3763,-2.3817,-2.3797,-2.3803,-2.3828,-2.3883,-2.3887,-2.3891,-2.3924,-2.3932,-2.394,0,0,0,0,0,0,-2.3726,-2.3731,-2.3721,-2.3763,-2.3773,-2.3778,-2.3801,-2.3789,-2.3804,-2.38,-2.379,-2.3792,-2.3828,-2.3832,-2.3809,-2.3873,-2.3847,-2.3852,-2.387,-2.3878,-2.3884,-2.3883,-2.3779,0,0,0,0,0,-2.3738,-2.376,-2.3763,-2.38,-2.3806,-2.3803,-2.3814,-2.3807,-2.3817,-2.3821,-2.3824,-2.3834,-2.3853,-2.3866,-2.3883,-2.3927,-2.3928,-2.3947,-2.3954,-2.3959,-2.3964,-2.3986,-2.3994,-2.3905,-2.3905,-2.3905,0,0,-2.3765,-2.377,-2.3785,-2.3807,-2.3814,-2.3836,-2.3806,-2.3832,-2.3848,-2.3825,-2.3857,-2.3859,-2.387,-2.3908,-2.3926,-2.3912,-2.3988,-2.3964,-2.3968,-2.397,-2.3991,-2.3999,-2.4006,-2.3908,-2.3907,-2.3907,0,0,-2.3824,-2.383,-2.3861,-2.3869,-2.3879,-2.3876,-2.3884,-2.3891,-2.3892,-2.3924,-2.3906,-2.3925,-2.3959,-2.3966,-2.3974,-2.4034,-2.402,-2.404,-2.4074,-2.4096,-2.4103,-2.4109,-2.413,-2.4137,-2.4045,-2.4045,-2.4045,0,-2.3855,-2.3888,-2.3879,-2.3905,-2.3915,-2.3895,-2.3925,-2.3933,-2.3949,-2.3956,-2.394,-2.3981,-2.3986,-2.4026,-2.404,-2.4048,-2.4055,-2.4039,-2.4103,-2.4109,-2.4114,-2.4134,-2.4142,-2.4047,-2.4047,-2.4047,-2.4047,0,-2.3925,-2.3948,-2.3972,-2.3987,-2.4,-2.4028,-2.4023,-2.4036,-2.4028,-2.4027,-2.4059,-2.4065,-2.4082,-2.4091,-2.4084,-2.413,-2.4121,-2.4104,-2.4077,-2.4125,-2.4143,-2.4151,-2.4051,-2.405,-2.4049,-2.4049,0,0,-2.4008,-2.4016,-2.4025,-2.4031,-2.4041,-2.4058,-2.4085,-2.4102,-2.4114,-2.4125,-2.4147,-2.4174,-2.4159,-2.4168,-2.4161,-2.418,-2.4226,-2.4161,-2.4161,-2.4172,-2.4276,-2.4287,-2.4296,-2.4217,-2.4218,-2.4219,-2.4274,0,-2.4066,-2.4112,-2.4104,-2.4149,-2.4169,-2.415,-2.4173,-2.4181,-2.418,-2.4197,-2.4195,-2.4215,-2.4194,-2.4199,-2.4217,-2.4217,-2.4246,-2.4212,-2.4236,-2.4237,-2.4233,-2.4306,-2.4319,-2.4371,-2.4282,-2.4283,-2.4284,0,-2.414,-2.4154,-2.4201,-2.4205,-2.4214,-2.4235,-2.4249,-2.4265,-2.4274,-2.4271,-2.4281,-2.427,-2.4296,-2.4268,-2.4303,-2.428,-2.4289,-2.429,-2.4292,-2.4293,-2.4263,-2.4309,-2.4387,-2.4395,-2.4295,-2.4294,-2.4293,0,-2.4194,-2.4224,-2.4256,-2.4261,-2.4268,-2.4283,-2.4287,-2.4293,-2.4304,-2.4316,-2.4322,-2.4338,-2.4346,-2.4358,-2.4351,-2.4332,-2.4386,-2.4358,-2.4384,-2.4385,-2.4397,-2.4396,-2.4477,-2.4404,-2.4403,-2.4403,-2.4403,0,-2.426,-2.4289,-2.428,-2.4299,-2.4331,-2.432,-2.4352,-2.4353,-2.4359,-2.4377,-2.4361,-2.4379,-2.4369,-2.4385,-2.438,-2.4409,-2.4413,-2.4411,-2.4409,-2.4412,-2.4412,-2.4418,-2.4414,-2.4405,-2.4405,-2.4404,-2.4404,0,-2.4326,-2.4321,-2.4354,-2.4357,-2.4358,-2.4381,-2.4384,-2.4401,-2.4399,-2.4423,-2.4428,-2.4424,-2.4442,-2.4436,-2.4457,-2.4453,-2.4489,-2.4483,-2.4486,-2.4485,-2.4511,-2.4508,-2.4598,-2.4609,-2.4529,-2.4529,-2.453,0,-2.4368,-2.439,-2.4395,-2.4406,-2.4411,-2.4429,-2.4439,-2.4429,-2.4441,-2.4451,-2.4467,-2.4484,-2.4497,-2.4528,-2.4527,-2.4542,-2.4535,-2.4566,-2.4537,-2.4539,-2.4535,-2.4533,-2.4535,-2.4571,-2.4572,-2.4573,-2.4573,0,-2.4442,-2.4439,-2.4454,-2.4468,-2.4481,-2.4492,-2.4501,-2.4511,-2.4502,-2.4515,-2.4534,-2.4544,-2.4564,-2.4581,-2.4594,-2.4597,-2.4584,-2.4582,-2.4589,-2.4592,-2.4593,-2.4592,-2.4501,-2.458,-2.458,-2.4579,-2.4579,-2.4578,-2.4497,-2.4515,-2.4521,-2.4538,-2.4544,-2.4553,-2.4569,-2.4568,-2.4584,-2.4599,-2.4592,-2.4614,-2.462,-2.4636,-2.4641,-2.4657,-2.4645,-2.4655,-2.4658,-2.466,-2.4663,-2.4591,-2.466,-2.4659,-2.4659,-2.4659,-2.4659,0,-2.457,-2.4573,-2.4589,-2.4602,-2.4615,-2.4601,-2.461,-2.4622,-2.4641,-2.4648,-2.4661,-2.4682,-2.4698,-2.4697,-2.4712,-2.4725,-2.4719,-2.4729,-2.4728,-2.4728,-2.4673,-2.4665,-2.4733,-2.4733,-2.4733,-2.4733,-2.4733,-2.4733,-2.461,-2.4639,-2.4635,-2.4667,-2.4669,-2.4689,-2.4696,-2.4703,-2.4709,-2.4732,-2.4746,-2.4745,-2.4749,-2.4763,-2.4777,-2.4776,-2.4782,-2.4794,-2.4791,-2.474,-2.4732,-2.4725,-2.4718,-2.4796,-2.4796,-2.4845,-2.4846,-2.4846]}]]